sat.trackr.live / text

‹ back to catalog

STARLINK-33756

NORAD 63458 · 2025-069AB

PAYLOAD ACTIVE UNKNOWN

§ Identity

Operator
Country
US
Launch date
2025-04-04
Launch site
AFWTR
Launch vehicle
Mass (kg)
RCS (m²)

Purposes: comms

External: N2YO · Heavens-Above · Gunter

§ Orbital elements

Epoch: 2026-09-20T10:53:28.615488Z

Period
93.85 min
Inclination
53.1597°
Eccentricity
0.0002178
Mean motion
15.34388201 rev/d
Perigee alt
461.2 km
Apogee alt
464.2 km
Semi-major
6,840.9 km
B*
4.4201e-4
RAAN
310.0018°
Arg perigee
104.1222°
Mean anomaly
256.0022°
Rev number
8,333

§ Raw data

STARLINK-337561 63458U 25069AB  26263.45380342  .00014581  00000+0  44201-3 0  99982 63458  53.1597 310.0018 0002178 104.1222 256.0022 15.34388201 83330

JSON: /api/v1/satellites/63458 · /tle

For live sub-satellite position, see the globe view (requires WebGL).

§ Visibility from observer

Set your observer location to see the next 7 days of passes ≥ 10°. The values pass through the URL so the page stays shareable.

No JS? Fill the form by hand. The geolocation button needs JavaScript.